AO-07 1 07530U 74089B 25288.82675019 -.00000040 00000-0 41910-4 0 9990 2 07530 101.9989 294.4775 0011951 237.1108 297.0114 12.53692372329896 UO-11 1 14781U 84021B 25288.83794120 .00002797 00000-0 29679-3 0 9996 2 14781 97.7716 252.8071 0006033 274.2213 85.8315 14.89843867220730 AO-27 1 22825U 93061C 25288.18939179 .00000175 00000-0 83748-4 0 9997 2 22825 98.7227 350.2945 0009519 98.6931 261.5330 14.30845019671968 FO-29 1 24278U 96046B 25288.51292034 -.00000003 00000-0 32630-4 0 9991 2 24278 98.5527 165.4474 0350207 11.2347 349.6361 13.53256762440074 NOAA-15 1 25338U 98030A 25288.84461639 .00000273 00000-0 12951-3 0 9990 2 25338 98.5287 310.8534 0009965 350.1699 9.9285 14.27036110426446 GO-32 1 25397U 98043D 25288.89419191 .00000178 00000-0 97057-4 0 9995 2 25397 98.9867 270.7850 0001313 152.5728 207.5519 14.24352573416558 ISS 1 25544U 98067A 25288.81546949 .00012353 00000-0 23086-3 0 9997 2 25544 51.6330 69.2378 0004186 294.4755 65.5797 15.49140674533876 NO-44 1 26931U 01043C 25288.82927622 .00000265 00000-0 12987-3 0 9995 2 26931 67.0496 156.2328 0007114 273.4804 86.5484 14.31805995255465 SO-50 1 27607U 02058C 25288.03938325 .00001895 00000-0 24680-3 0 9991 2 27607 64.5527 166.9775 0068328 307.6366 51.8551 14.82081808228111 CO-55 1 27844U 03031E 25288.83836345 .00000573 00000-0 26816-3 0 9998 2 27844 98.6789 295.4823 0009767 168.7151 191.4249 14.24106915156897 CO-57 1 27848U 03031J 25288.77696617 .00000422 00000-0 20492-3 0 9998 2 27848 98.6817 295.3292 0009311 186.5434 173.5625 14.23425444156607 RS-22 1 27939U 03042A 25288.83687057 .00002077 00000-0 33353-3 0 9994 2 27939 98.3378 101.5081 0010783 328.6587 138.2857 14.72721151179578 CO-58 1 28895U 05043F 25288.85542028 .00003142 00000-0 51354-3 0 9994 2 28895 98.2677 74.9854 0013352 259.6616 100.3085 14.71538518 65808 CO-65 1 32785U 08021C 25288.85324262 .00008018 00000-0 55377-3 0 9990 2 32785 97.8018 261.1896 0011273 129.0883 231.1348 15.05981039948372 CO-66 1 32791U 08021J 25288.79076828 .00019479 00000-0 84192-3 0 9992 2 32791 97.7407 272.0777 0006423 87.5614 272.6357 15.22500622949971 RS-30 1 32953U 08025A 25288.84642561 .00000019 00000-0 65241-4 0 9990 2 32953 82.5023 147.4336 0019698 123.3612 236.9357 12.43169358789330 NOAA-19 1 33591U 09005A 25288.83076802 .00000099 00000-0 76833-4 0 9993 2 33591 98.9841 354.1746 0013739 5.9731 354.1602 14.13418192859962 SRMSAT 1 37841U 11058D 25288.83716198 .00000522 00000-0 13994-3 0 9994 2 37841 19.9713 98.3809 0011801 35.7874 16.4418 14.11481236723251 ZACUBE-1 1 39417U 13066B 25288.83607279 .00009541 00000-0 79559-3 0 9994 2 39417 97.7959 245.3667 0042162 347.0078 13.0054 14.98117932644102 Delfi-N3xt 1 39428U 13066N 25288.83211088 .00011790 00000-0 11414-2 0 9999 2 39428 97.8286 205.1487 0079740 298.5916 60.7295 14.90501190638165 GOMX-1 1 39430U 13066Q 25288.84429983 .00002986 00000-0 46186-3 0 9990 2 39430 97.6670 139.5887 0131993 141.1764 219.9016 14.68215024634045 LO-74 1 39440U 13066AA 25288.84251589 .00005800 00000-0 57011-3 0 9993 2 39440 97.8603 232.6615 0062314 115.6814 245.0857 14.91057213640545 AO-73 1 39444U 13066AE 25288.75516341 .00012619 00000-0 88968-3 0 9998 2 39444 97.7981 251.4114 0038191 316.7181 43.1045 15.04532754642841 DTUSAT-2 1 40030U 14033W 25288.72636501 .00010596 00000-0 64953-3 0 9994 2 40030 98.0705 267.0065 0008595 3.3241 356.8043 15.10329575615722 EO-80 1 40032U 14033Y 25288.87218772 .00010406 00000-0 63677-3 0 9990 2 40032 98.0587 266.6361 0006008 294.6181 65.4421 15.10416192615726 LILACSAT-2 1 40908U 15049K 25288.84402574 .00017886 00000-0 41558-3 0 9995 2 40908 97.5000 312.5225 0010232 65.7937 294.4379 15.42354877557976 IO-86 1 40931U 15052B 25151.18580175 .00001241 00000-0 78118-4 0 9996 2 40931 6.0006 24.0987 0012733 338.8432 21.1169 14.78805930523159 Horyu-4 1 41340U 16012D 25288.24025146 .00042438 00000-0 88690-3 0 9996 2 41340 30.9960 349.6354 0003195 321.6133 38.4287 15.44239911532485 Lapan A3 1 41603U 16040E 25288.86015698 .00004854 00000-0 16481-3 0 9997 2 41603 97.1432 288.5487 0011305 160.8300 199.3370 15.30887835517409 CAS-2T 1 41847U 16066G 25288.62695068 .00002717 00000-0 39053-3 0 9990 2 41847 98.4094 1.9341 0345342 150.8384 211.2587 14.43889428469497 CAS-4B 1 42759U 17034B 25286.97241530 .03437790 89859-5 10544-2 0 9999 2 42759 42.9888 273.3261 0008257 129.3938 230.7682 16.25684504462550 CAS-4A 1 42761U 17034D 25281.34159269 .04203186 90411-5 12507-2 0 9993 2 42761 42.9927 303.5081 0008135 81.2710 278.9099 16.26032227461692 TechnoSat 1 42829U 17042E 25288.81056108 .00006653 00000-0 50067-3 0 9994 2 42829 97.4002 91.5510 0018225 207.3606 152.6661 15.02709233449974 AO-91 1 43017U 17073E 25288.18435494 .00011043 00000-0 53512-3 0 9994 2 43017 97.5029 155.7692 0167581 91.0179 271.0254 15.07091876428413 S-Net D 1 43186U 18014G 25288.78450498 .00007323 00000-0 41437-3 0 9993 2 43186 97.5482 190.3872 0010133 133.5971 226.6102 15.13305613421752 S-Net B 1 43187U 18014H 25288.79165446 .00007554 00000-0 42751-3 0 9997 2 43187 97.5489 190.3720 0010940 130.3718 229.8470 15.13282620421757 S-Net A 1 43188U 18014J 25288.78443792 .00007278 00000-0 41174-3 0 9991 2 43188 97.5495 190.5326 0010807 130.7439 229.4732 15.13310868421758 S-Net C 1 43189U 18014K 25288.79440550 .00007516 00000-0 42531-3 0 9995 2 43189 97.5513 190.5783 0012443 125.5879 234.6513 15.13276089420306 Ten-Koh 1 43677U 18084G 25288.80151825 .00003622 00000-0 28664-3 0 9995 2 43677 98.0724 106.1374 0008807 189.6259 170.4796 15.01267647379477 PO-101 1 43678U 18084H 25288.85332823 .00004531 00000-0 37896-3 0 9997 2 43678 98.1073 109.9845 0007372 204.2263 155.8613 14.99002577379598 QO-100 1 43700U 18090A 25288.84737130 .00000130 00000-0 00000 0 0 9993 2 43700 0.0174 239.7155 0002054 7.7700 108.0112 1.00272548 25225 MinXSS-2 1 43758U 18099A 25288.44806272 .00027466 00000-0 92532-3 0 9991 2 43758 97.4881 355.1722 0011424 69.3732 290.8733 15.30657274376494 AO-95 1 43770U 18099N 25288.63253082 .00014684 00000-0 68400-3 0 9996 2 43770 97.4773 345.4022 0011388 123.3746 236.8580 15.19948126375987 SNUSat 2 1 43782U 18099AA 25288.83012638 .00011464 00000-0 58564-3 0 9994 2 43782 97.4453 341.2631 0012873 72.7255 287.5386 15.16775537375929 SnugLite 1 43784U 18099AC 25288.83131660 .00014137 00000-0 65267-3 0 9991 2 43784 97.4267 341.1258 0004614 78.9135 281.2619 15.20313257376100 ITASat 1 1 43786U 18099AE 25288.78974921 .00008753 00000-0 47352-3 0 9994 2 43786 97.4421 340.3342 0015243 120.4068 239.8673 15.14793566375855 EAGLET 1 1 43790U 18099AJ 25288.61530937 .00006295 00000-0 38741-3 0 9997 2 43790 97.4623 339.6526 0013298 108.2192 252.0486 15.10281452375388 ESEO 1 43792U 18099AL 25288.57349478 .00002211 00000-0 16759-3 0 9991 2 43792 97.4343 331.1162 0014868 88.1879 272.1050 15.03150136375043 JO-97 1 43803U 18099AX 25288.11006345 .00016779 00000-0 68842-3 0 9991 2 43803 97.4516 346.2019 0008045 65.6732 294.5344 15.24278738376175 Suomi 100 1 43804U 18099AY 25288.15201493 .00013345 00000-0 59896-3 0 9992 2 43804 97.4581 345.1313 0012870 67.4160 292.8436 15.21232711376079 ISAT 1 43879U 18111D 25288.73909696 .00038194 00000-0 10743-2 0 9999 2 43879 97.5870 206.3837 0010980 99.5773 260.6712 15.36334812373324 UWE-4 1 43880U 18111E 25288.25823884 .00025914 00000-0 87390-3 0 9991 2 43880 97.5815 203.3504 0013350 113.9932 246.2707 15.30615856373121 Sparrow 1 43881U 18111F 25288.53802149 .00040411 00000-0 10757-2 0 9995 2 43881 97.6042 209.6083 0008674 122.9720 237.2359 15.38057554373401 Prox-1 1 44339U 19036A 25288.68289510 .00017194 00000-0 20304-2 0 9999 2 44339 23.9968 298.6355 0007431 99.9973 260.1363 14.83032946337038 Taurus 1 1 44530U 19059C 25288.85297116 .00009883 00000-0 17397-2 0 9991 2 44530 98.6202 74.5907 0008704 357.3987 2.7169 14.67769199322740 Duchifat 3 1 44854U 19089C 25288.29125110 .00171297 00000-0 16372-2 0 9996 2 44854 36.9346 255.0017 0009062 231.5864 128.4085 15.65203754322883 TO-108 1 44881U 19093C 25288.85893318 .00001757 00000-0 20736-3 0 9998 2 44881 97.7819 1.7739 0014043 164.8766 195.2872 14.85902126315129 FloripaSat 1 1 44885U 19093G 25288.83452043 .00008650 00000-0 69711-3 0 9991 2 44885 97.8089 16.7908 0010832 148.4003 211.7873 15.00115379315962 RS-44 1 44909U 19096E 25288.84829633 .00000020 00000-0 39734-4 0 9991 2 44909 82.5198 142.0826 0217518 355.9458 3.9873 12.79744522271099 UPMSat 2 1 46276U 20061E 25284.11510829 .12115553 24945-5 13983-3 0 9991 2 46276 97.2106 5.1352 0012001 257.8540 102.1421 16.49625583285008 SALSAT 1 46495U 20068K 25288.81284972 .00010797 00000-0 43622-3 0 9994 2 46495 97.8748 273.0369 0013103 79.3629 280.9083 15.24872620278056 CSS (TIANHE-1) 1 48274U 21035A 25288.70459370 .00041669 00000-0 46770-3 0 9999 2 48274 41.4665 9.3553 0003274 248.5442 111.5048 15.61854520254966 TUBIN 1 48900U 21059X 25288.83255060 .00132414 00000-0 79978-3 0 9990 2 48900 97.6739 109.8330 0001875 121.6059 238.5390 15.77245783240121 LEDSAT 1 49069U 21073D 25287.95720868 .11134366 25314-5 40586-3 0 9991 2 49069 97.3489 17.4861 0013151 272.2565 87.7231 16.42992651231488 CUTE 1 49263U 21088D 25288.83802515 .00031680 00000-0 49450-3 0 9993 2 49263 97.4399 9.2997 0007032 121.4122 238.7820 15.53743043224292 TeikyoSat 4 1 49396U 21102B 25288.82400839 .00003262 00000-0 21410-3 0 9990 2 49396 97.3989 322.5861 0013887 58.5122 301.7462 15.08251134215871 Z-Sat 1 49399U 21102E 25288.75980985 .00005621 00000-0 29796-3 0 9996 2 49399 97.3677 326.4505 0018195 24.8493 335.3612 15.15629130216380 KOSEN 1 1 49402U 21102H 25288.81698936 .00010069 00000-0 43908-3 0 9993 2 49402 97.3571 330.9386 0014841 356.4367 3.6762 15.22262968216788 HO-113 1 50466U 21131B 25288.88114551 .00000832 00000-0 27252-3 0 9991 2 50466 98.5073 17.5943 0005253 109.2957 250.8800 14.40991419199927 SNUGLITE 2 1 52899U 22065F 25288.83284931 .00002148 00000-0 42261-3 0 9994 2 52899 98.1876 69.7211 0008604 74.0858 286.1292 14.63589210175248 UmKA 1 (RS40S) 1 57172U 23091G 25288.78461878 .00007971 00000-0 40571-3 0 9995 2 57172 97.5435 343.5201 0012507 247.8245 112.1662 15.17021054126905 CubeBel-2 (EU11S) 1 57175U 23091K 25288.83759127 .00013700 00000-0 60099-3 0 9995 2 57175 97.5435 345.5820 0010078 251.6335 108.3805 15.22041858127043 ENSO 1 58470U 23185J 25286.99676613 .00315332 00000-0 14127-2 0 9997 2 58470 97.3538 7.7888 0004942 287.2111 72.8618 15.83344704104804 SONATE-2 1 59112U 24043Q 25288.80572715 .00030223 00000-0 73072-3 0 9993 2 59112 97.5287 63.0951 0009834 18.3855 341.7745 15.41050641 90047 MO-122 1 60209U 24125G 25288.84485175 .00030636 00000-0 72204-3 0 9994 2 60209 97.2619 139.3489 0017627 39.7859 320.4677 15.41702234 71673 GRBBeta 1 60237U 24128C 25288.65675399 .00005261 00000-0 38129-3 0 9990 2 60237 61.9926 352.6171 0056930 84.3252 276.4327 15.03944198 69454 Curium One 1 60242U 24128H 25288.64808854 .00009319 00000-0 60381-3 0 9992 2 60242 61.9821 348.7916 0056654 80.7960 279.9535 15.07403538 69525 ROBUSTA-3A 1 60243U 24128J 25288.49536278 .00008994 00000-0 59285-3 0 9993 2 60243 61.9896 350.6192 0056426 78.2412 282.5004 15.06816368 69481 CatSat 1 60246U 24125J 25288.76398888 .00032220 00000-0 91362-3 0 9997 2 60246 97.2433 136.9600 0037827 359.2994 0.8191 15.35442824 69610 HYPERVIEW-1G (RS66S) 1 61772U 24199AP 25288.83549600 .00039380 00000-0 91552-3 0 9996 2 61772 97.3302 157.7763 0014036 90.3142 269.9714 15.42123473 96676 AO-123 1 61781U 24199AY 25288.83493535 .00010524 00000-0 35917-3 0 9993 2 61781 97.3329 154.9648 0017037 100.8157 259.5002 15.30372821 96487 ZIMSAT 2 1 61783U 24199BA 25288.89868135 .00093400 00000-0 14070-2 0 9993 2 61783 97.3233 159.8839 0012840 83.8454 276.4262 15.54388291 99973 HADES-R (SO-124) 1 62690U 25009CK 25288.45826327 .00094827 00000-0 21765-2 0 9994 2 62690 97.3976 9.6198 0001610 323.3272 36.7865 15.42356160 41754 HYDRA-T 1 62692U 25009CM 25288.47615867 .00097021 00000-0 21787-2 0 9996 2 62692 97.3974 9.7479 0001746 307.2433 52.8655 15.43002964 41765 JINJUSat 1B 1 63210U 25052A 25288.66403471 .00018332 00000-0 75633-3 0 9996 2 63210 97.4226 181.2884 0002236 198.0831 162.0327 15.24098788 32737 NUSHSAT 1 1 63211U 25052B 25288.82289831 .00020115 00000-0 81318-3 0 9996 2 63211 97.4214 181.5041 0001910 202.0470 158.0685 15.24766153 32769 TEVEL2-4 1 63213U 25052D 25288.80189505 .00019606 00000-0 80438-3 0 9998 2 63213 97.4131 181.1484 0000683 228.3651 131.7528 15.24274448 32758 TEVEL2-5 1 63214U 25052E 25288.80508036 .00019355 00000-0 79535-3 0 9990 2 63214 97.4132 181.1448 0000675 229.2155 130.9024 15.24224245 32752 TEVEL2-6 1 63215U 25052F 25288.81061302 .00018548 00000-0 76334-3 0 9999 2 63215 97.4133 181.1411 0000698 232.8197 127.2977 15.24182229 32756 TEVEL2-1 1 63217U 25052H 25288.44795588 .00019274 00000-0 79986-3 0 9993 2 63217 97.4108 180.6398 0000940 299.0309 61.0834 15.23892100 32693 TEVEL2-3 1 63218U 25052J 25288.64479213 .00019952 00000-0 82732-3 0 9996 2 63218 97.4112 180.8371 0000956 298.2585 61.8555 15.23913375 32726 TEVEL2-2 1 63219U 25052K 25288.64571171 .00019864 00000-0 82405-3 0 9992 2 63219 97.4110 180.8354 0000943 298.3169 61.7973 15.23898313 32728 TEVEL2-9 1 63237U 25052AD 25288.81736383 .00017824 00000-0 76970-3 0 9993 2 63237 97.4172 180.7870 0005284 297.6691 62.4009 15.22548683 32722 TEVEL2-7 1 63238U 25052AE 25288.82634749 .00017696 00000-0 76668-3 0 9999 2 63238 97.4174 180.7802 0005352 297.3839 62.6852 15.22438742 32729 TEVEL2-8 1 63239U 25052AF 25288.83094237 .00018085 00000-0 78407-3 0 9999 2 63239 97.4174 180.7720 0005371 297.7676 62.3015 15.22409852 32721 HYDRA-W 1 63490U 25052BL 25288.54884372 .00058457 00000-0 18583-2 0 9998 2 63490 97.4109 181.9044 0005978 289.3960 70.6636 15.32395545 32787 HADES-ICM (SO-125) 1 63492U 25052BN 25288.74962509 .00053884 00000-0 17710-2 0 9991 2 63492 97.4118 181.9591 0006599 293.9577 66.0973 15.31341933 32808